Showing default

LES 6, 3431

Orbit data source: Space-Track

LES 6, 3431 is a payload satellite owned by SAMSO (US) in GEO that was launched on Thu, 26 Sep 1968 UTC via a TITAN IIIC launch vehicle from the Air Force Eastern Test Range (AFETR). Payload-class satellites include a variety of spacecraft equipped with specific instruments for various scientific and technological missions. These include communications satellites like Starlink; space stations such as the ISS; scientific satellites like the Hubble; Earth observation satellites from companies like Planet Labs, Umbra, and HawkEye 360; GPS; miniature CubeSats for education and research; and military/defense satellites.

Loading next visibility...
Identifier
3431, 1968-081D
Orbit
GEO
Country
Flag of USUS
Related business
Manufacturer
MIT-LL
Mission
Non-operational spacecraft
Bus & Motor
LES, Unknown motor
Mass
169 kg wet, ~149 kg dry
Launch date (UTC)
1968-09-26 (57 years ago)
Launch vehicle
TITAN IIIC
Launch site
Air Force Eastern Test Range (AFETR)
Object type
Payload
Rocket body
Debris
Shape & HBR
Unknown
Radar Cross Section
Large (>1 m²)

Expand to show TLE details & history
Last TLE update: 18 hours ago

TLE from 18 hours ago
0 LES 6
1 03431U 68081D   25293.66698248  .00000108  00000-0  00000-0 0  9993
2 03431   1.1777  23.0632 0008030 299.6428 168.2474  1.00221402118388
Epoch: 2025-10-20T16:00Z
TLE epoch observation values (Epoch: 2025-10-20T16:00:27.286Z)
Latitude
1.09666°
Longitude
-138.53043°
Altitude
35,833.103 km
Speed
3.072 km/s
True Right ascension
08h 43m 47s
True Declination
1° 05' 44"
Sunlit
Object was in daylight at epoch
Visualization orbit readout
Latitude
Unknown
Longitude
Unknown
Altitude
Unknown
Speed
Unknown
Apparent Right ascension
Unknown
Apparent Declination
Unknown
Sunlit
N/A
Visualization observer readout
Local Sidereal Time
04:53:53
Azimuth
Unknown
Elevation
Unknown
Doppler factor
Unknown
Orbital elements
Apogee altitude
35,835.665 km
Perigee altitude
35,767.924 km
Semi-major axis
42,179.931 km
Eccentricity
0.0008
Inclination
1.1777°
RAAN
23.0632°
Arg. of periapsis
299.6428°
True anomaly
168.26612°
Mean anomaly
168.2474°
Eccentric anomaly
168.25676°
Mean motion
0.25054 °/min
Orbital period
1,436.87 mins
BSTAR
0
Loading maneuver chart data...
Computing Atmospheric mass density...

Documentation

Showing up to 5 results
|